Eveleth, MN

11:37 PM CDT on April 25, 2017 (GMT -0500)
Eveleth-Virginia Municipal

Weather History for KEVM - January, 2014

Change the Weather History Date:

Saturday, January 4, 2014

  Actual Average Record
Temperature  
Mean Temperature 2 °F -  
Max Temperature 17 °F 17 °F 39 °F (2001)
Min Temperature -13 °F 0 °F -25 °F (1988)
Degree Days  
Heating Degree Days 63    
Moisture  
Dew Point -2 °F    
Average Humidity 74    
Maximum Humidity 93    
Minimum Humidity 61    
Precipitation  
Precipitation 0.00 in - - ()
Sea Level Pressure  
Sea Level Pressure 29.80 in    
Wind  
Wind Speed 8 mph (WNW)    
Max Wind Speed 20 mph    
Max Gust Speed 25 mph    
Visibility 8 miles    
Events Snow    
Averages and records for this station are not official NWS values.
T = Trace of Precipitation, MM = Missing Value Source: NWS Daily Summary

Daily Weather History Graph

Daily Weather History Graph

Search for Another Location

Airport or City:

Trip Planner

Search our weather history database for the weather conditions in past years. The results will help you decide how hot, cold, wet, or windy it might be!

Date:

Astronomy

Jan. 04, 2014 Rise Set
Actual Time 7:57 AM CST 4:33 PM CST
Civil Twilight 7:21 AM CST 5:08 PM CST
Nautical Twilight 6:42 AM CST 5:47 PM CST
Astronomical Twilight 6:05 AM CST 6:24 PM CST
Moon 9:45 AM CST (1/4) 9:12 PM CST (1/4)
Length of Visible Light 9h 46m
Length of Day
8h 35m
Waxing Crescent, 15% of the Moon is Illuminated
Jan 4
Waxing Crescent
Jan 7
First Quarter
Jan 15
Full
Jan 23
Last Quarter
Jan 30
New

Hourly Weather History & Observations

Time (CST) Temp. Windchill Dew Point Humidity Pressure Visibility Wind Dir Wind Speed Gust Speed Precip Events Conditions
12:07 AM 17.6 °F 12.3 °F 15.8 °F 93% 29.36 in 1.2 mi SSW 3.5 mph - N/A Snow Light Snow
12:26 AM 17.6 °F - 15.8 °F 93% 29.33 in 1.8 mi Calm Calm - N/A Snow Light Snow
12:47 AM 17.6 °F - 15.8 °F 93% 29.32 in 3.0 mi Calm Calm - N/A Snow Light Snow
1:06 AM 17.6 °F - 15.8 °F 93% 29.35 in 2.5 mi Calm Calm - N/A Snow Light Snow
1:26 AM 17.6 °F - 15.8 °F 93% 29.36 in 2.5 mi Calm Calm - N/A Snow Light Snow
1:46 AM 17.6 °F - 15.8 °F 93% 29.38 in 4.0 mi Calm Calm - N/A Snow Light Snow
2:06 AM 17.6 °F - 15.8 °F 93% 29.38 in 5.0 mi Calm Calm - N/A Snow Light Snow
2:27 AM 17.6 °F 7.3 °F 15.8 °F 93% 29.41 in 4.0 mi WNW 8.1 mph - N/A Snow Light Snow
2:46 AM 17.6 °F 3.2 °F 14.0 °F 86% 29.42 in 7.0 mi NW 15.0 mph 20.7 mph N/A Snow Light Snow
3:07 AM 17.6 °F 5.0 °F 14.0 °F 86% 29.43 in 7.0 mi NNW 11.5 mph 21.9 mph N/A Snow Light Snow
3:26 AM 17.6 °F 3.2 °F 12.2 °F 79% 29.46 in 5.0 mi NW 15.0 mph 18.4 mph N/A Snow Light Snow
3:46 AM 15.8 °F 2.1 °F 10.4 °F 79% 29.47 in 2.5 mi NW 12.7 mph 21.9 mph N/A Snow Light Snow
4:07 AM 12.2 °F -4.8 °F 8.6 °F 85% 29.51 in 3.0 mi NW 17.3 mph 23.0 mph N/A Snow Light Snow
4:26 AM 12.2 °F -3.7 °F 8.6 °F 85% 29.52 in 7.0 mi NW 15.0 mph 23.0 mph N/A Snow Light Snow
4:47 AM 12.2 °F -4.3 °F 8.6 °F 85% 29.54 in 3.0 mi NW 16.1 mph 23.0 mph N/A Snow Light Snow
5:07 AM 10.4 °F -5.4 °F 5.0 °F 79% 29.56 in 7.0 mi NNW 13.8 mph 18.4 mph N/A Snow Light Snow
5:26 AM 10.4 °F -5.4 °F 3.2 °F 73% 29.57 in 10.0 mi NW 13.8 mph 18.4 mph N/A Snow Light Snow
5:47 AM 10.4 °F -4.1 °F 3.2 °F 73% 29.59 in 10.0 mi NW 11.5 mph 21.9 mph N/A   Overcast
6:07 AM 10.4 °F -2.4 °F 5.0 °F 79% 29.61 in 7.0 mi NW 9.2 mph 20.7 mph N/A Snow Light Snow
6:26 AM 10.4 °F -3.3 °F 5.0 °F 79% 29.64 in 3.0 mi NW 10.4 mph 20.7 mph N/A Snow Light Snow
6:47 AM 10.4 °F -4.8 °F 5.0 °F 79% 29.65 in 4.0 mi NW 12.7 mph 23.0 mph N/A Snow Light Snow
7:07 AM 10.4 °F -1.5 °F 5.0 °F 79% 29.67 in 4.0 mi NW 8.1 mph 20.7 mph N/A Snow Light Snow
7:26 AM 10.4 °F -6.6 °F 3.2 °F 73% 29.67 in 5.0 mi NW 16.1 mph 21.9 mph N/A Snow Light Snow
7:47 AM 8.6 °F -1.3 °F 3.2 °F 79% 29.70 in 3.0 mi WNW 5.8 mph 17.3 mph N/A Snow Light Snow
8:07 AM 8.6 °F -4.7 °F 1.4 °F 73% 29.72 in 2.5 mi NW 9.2 mph 19.6 mph N/A Snow Light Snow
8:26 AM 8.6 °F -7.7 °F 1.4 °F 73% 29.74 in 5.0 mi WNW 13.8 mph 21.9 mph N/A Snow Light Snow
8:47 AM 6.8 °F -10.7 °F 1.4 °F 79% 29.76 in 3.0 mi WNW 15.0 mph 20.7 mph N/A Snow Light Snow
9:07 AM 6.8 °F -8.6 °F -0.4 °F 72% 29.78 in 2.5 mi NW 11.5 mph - N/A Snow Light Snow
9:26 AM 5.0 °F -10.8 °F -0.4 °F 78% 29.78 in 2.5 mi WNW 11.5 mph 24.2 mph N/A Snow Light Snow
9:47 AM 5.0 °F -13.0 °F -0.4 °F 78% 29.79 in 4.0 mi WNW 15.0 mph 23.0 mph N/A   Haze
10:07 AM 5.0 °F -9.1 °F -2.2 °F 72% 29.80 in 7.0 mi NW 9.2 mph 23.0 mph N/A   Scattered Clouds
10:26 AM 5.0 °F -13.0 °F -0.4 °F 78% 29.81 in 5.0 mi WNW 15.0 mph 24.2 mph N/A   Haze
10:47 AM 5.0 °F -15.2 °F -2.2 °F 72% 29.82 in 5.0 mi WNW 19.6 mph 23.0 mph N/A   Haze
11:07 AM 5.0 °F -12.3 °F -2.2 °F 72% 29.83 in 10.0 mi WNW 13.8 mph 23.0 mph N/A   Scattered Clouds
11:26 AM 5.0 °F -14.7 °F -2.2 °F 72% 29.83 in 10.0 mi WNW 18.4 mph 25.3 mph N/A   Scattered Clouds
11:46 AM 5.0 °F -9.1 °F -4.0 °F 66% 29.84 in 10.0 mi WNW 9.2 mph 20.7 mph N/A   Scattered Clouds
12:06 PM 5.0 °F -10.0 °F -4.0 °F 66% 29.84 in 10.0 mi WNW 10.4 mph - N/A   Scattered Clouds
12:27 PM 5.0 °F -10.8 °F -4.0 °F 66% 29.85 in 10.0 mi WNW 11.5 mph 18.4 mph N/A   Scattered Clouds
12:46 PM 5.0 °F -9.1 °F -4.0 °F 66% 29.84 in 10.0 mi WNW 9.2 mph 19.6 mph N/A   Scattered Clouds
1:07 PM 6.8 °F -9.3 °F -4.0 °F 61% 29.85 in 10.0 mi West 12.7 mph - N/A   Clear
1:26 PM 6.8 °F -8.6 °F -4.0 °F 61% 29.86 in 10.0 mi West 11.5 mph - N/A   Scattered Clouds
1:47 PM 6.8 °F -10.0 °F -4.0 °F 61% 29.87 in 10.0 mi West 13.8 mph 19.6 mph N/A   Mostly Cloudy
2:07 PM 5.0 °F -13.0 °F -4.0 °F 66% 29.88 in 10.0 mi West 15.0 mph 21.9 mph N/A   Overcast
2:26 PM 5.0 °F -9.1 °F -4.0 °F 66% 29.91 in 10.0 mi WNW 9.2 mph - N/A   Mostly Cloudy
2:47 PM 5.0 °F -12.3 °F -4.0 °F 66% 29.92 in 10.0 mi West 13.8 mph 17.3 mph N/A   Overcast
3:07 PM 5.0 °F -10.0 °F -4.0 °F 66% 29.93 in 10.0 mi WNW 10.4 mph 18.4 mph N/A   Overcast
3:26 PM 5.0 °F -9.1 °F -4.0 °F 66% 29.94 in 10.0 mi West 9.2 mph 17.3 mph N/A   Scattered Clouds
3:47 PM 5.0 °F -10.0 °F -5.8 °F 61% 29.95 in 10.0 mi WNW 10.4 mph - N/A   Clear
4:07 PM 3.2 °F -11.3 °F -5.8 °F 66% 29.96 in 10.0 mi WNW 9.2 mph - N/A   Clear
4:26 PM 3.2 °F -7.8 °F -5.8 °F 66% 29.98 in 10.0 mi West 5.8 mph - N/A   Scattered Clouds
4:47 PM 3.2 °F -13.1 °F -7.6 °F 61% 29.99 in 10.0 mi West 11.5 mph 16.1 mph N/A   Scattered Clouds
5:06 PM 1.4 °F -11.3 °F -7.6 °F 66% 30.00 in 10.0 mi West 6.9 mph - N/A   Clear
5:27 PM -0.4 °F -10.4 °F -7.6 °F 72% 30.00 in 10.0 mi West 4.6 mph - N/A   Clear
5:46 PM -0.4 °F -12.0 °F -7.6 °F 72% 30.01 in 10.0 mi West 5.8 mph - N/A   Clear
6:06 PM -0.4 °F -12.0 °F -9.4 °F 66% 30.01 in 10.0 mi West 5.8 mph - N/A   Clear
6:27 PM -0.4 °F -18.4 °F -9.4 °F 66% 30.02 in 10.0 mi West 12.7 mph - N/A   Clear
6:46 PM -2.2 °F -19.9 °F -9.4 °F 71% 30.03 in 10.0 mi WNW 11.5 mph 16.1 mph N/A   Clear
7:07 PM -2.2 °F -18.0 °F -9.4 °F 71% 30.05 in 10.0 mi WNW 9.2 mph - N/A   Clear
7:27 PM -4.0 °F -24.5 °F -13.0 °F 65% 30.06 in 10.0 mi WNW 15.0 mph 23.0 mph N/A   Clear
7:46 PM -5.8 °F -21.2 °F -14.8 °F 65% 30.07 in 10.0 mi WNW 8.1 mph - N/A   Clear
8:07 PM -5.8 °F -24.4 °F -14.8 °F 65% 30.08 in 10.0 mi West 11.5 mph - N/A   Clear
8:27 PM -7.6 °F -22.1 °F -14.8 °F 71% 30.10 in 10.0 mi West 6.9 mph - N/A   Clear
8:46 PM -7.6 °F -25.7 °F -14.8 °F 71% 30.10 in 10.0 mi West 10.4 mph - N/A   Clear
9:07 PM -7.6 °F -23.4 °F -14.8 °F 71% 30.11 in 10.0 mi West 8.1 mph - N/A   Clear
9:27 PM -7.6 °F -24.6 °F -14.8 °F 71% 30.11 in 10.0 mi WNW 9.2 mph - N/A   Clear
9:46 PM -9.4 °F -25.6 °F -18.4 °F 65% 30.12 in 10.0 mi WNW 8.1 mph - N/A   Clear
10:07 PM -9.4 °F -25.6 °F -16.6 °F 71% 30.12 in 10.0 mi WNW 8.1 mph - N/A   Clear
10:26 PM -9.4 °F -26.8 °F -18.4 °F 65% 30.12 in 10.0 mi WNW 9.2 mph - N/A   Clear
10:47 PM -11.2 °F -24.8 °F -18.4 °F 70% 30.13 in 10.0 mi West 5.8 mph - N/A   Clear
11:07 PM -13.0 °F -27.0 °F -18.4 °F 77% 30.13 in 10.0 mi WNW 5.8 mph - N/A   Clear
11:26 PM -13.0 °F -30.0 °F -18.4 °F 77% 30.13 in 10.0 mi WNW 8.1 mph - N/A   Clear
11:47 PM -13.0 °F -28.6 °F -20.2 °F 70% 30.14 in 10.0 mi WNW 6.9 mph - N/A   Clear